• In Portugal
  • List of Countries
  • For 7 days
  • Water Temperature
  • Satellite Maps
  • Weather Map
  • Weather Widgets
  • user-avatar
    Login

    Hourly Weather Maun

    Today, 21 February, Wednesday

    Time Temperature Precipitation Wind Pressure Humidity
    00:00 +24°C° 1.5 mm 1 mps 679 mmHg 84%
    01:00 +24°C° 1.5 mm 1 mps 679 mmHg 85%
    02:00 +24°C° 1.5 mm 1 mps 678 mmHg 86%
    03:00 +24°C° 0.1 mm 1 mps 678 mmHg 86%
    04:00 +24°C° 0.1 mm 1 mps 678 mmHg 87%
    05:00 +24°C° 0.1 mm 1 mps 678 mmHg 88%
    06:00 +24°C° 0.1 mm 1 mps 678 mmHg 86%
    07:00 +24°C° 0.1 mm 1 mps 679 mmHg 85%
    08:00 +25°C° 0.1 mm 1 mps 679 mmHg 83%
    09:00 +26°C° 1.1 mm 1 mps 679 mmHg 77%
    10:00 +28°C° 1.1 mm 2 mps 679 mmHg 70%
    11:00 +29°C° 1.1 mm 2 mps 680 mmHg 64%
    12:00 +30°C° 1.1 mm 2 mps 679 mmHg 61%
    13:00 +30°C° 1.1 mm 2 mps 679 mmHg 58%
    14:00 +31°C° 1.1 mm 2 mps 678 mmHg 55%
    15:00 +31°C° 0.5 mm 2 mps 678 mmHg 56%
    16:00 +30°C° 0.5 mm 2 mps 677 mmHg 58%
    17:00 +30°C° 0.5 mm 2 mps 677 mmHg 59%
    18:00 +28°C° 1.2 mm 2 mps 677 mmHg 66%
    19:00 +27°C° 1.2 mm 1 mps 677 mmHg 72%
    20:00 +25°C° 1.2 mm 1 mps 677 mmHg 79%
    21:00 +25°C° 0.2 mm 1 mps 677 mmHg 80%
    22:00 +25°C° 0.2 mm 1 mps 677 mmHg 82%
    23:00 +24°C° 0.2 mm 1 mps 678 mmHg 84%

    Tomorrow, 22 February, Thursday

    Time Temperature Precipitation Wind Pressure Humidity
    00:00 +24°C° 0.4 mm 1 mps 677 mmHg 85%
    01:00 +24°C° 0.4 mm 1 mps 677 mmHg 86%
    02:00 +23°C° 0.4 mm 1 mps 677 mmHg 87%
    03:00 +23°C° 0.3 mm 1 mps 677 mmHg 88%
    04:00 +23°C° 0.3 mm 2 mps 676 mmHg 90%
    05:00 +23°C° 0.3 mm 2 mps 676 mmHg 91%
    06:00 +23°C° 1.2 mm 1 mps 677 mmHg 90%
    07:00 +23°C° 1.2 mm 1 mps 677 mmHg 90%
    08:00 +23°C° 1.2 mm 1 mps 677 mmHg 89%
    09:00 +24°C° 0.9 mm 1 mps 678 mmHg 85%
    10:00 +25°C° 0.9 mm 1 mps 678 mmHg 82%
    11:00 +26°C° 0.9 mm 1 mps 678 mmHg 78%
    12:00 +26°C° 1.1 mm 1 mps 678 mmHg 76%
    13:00 +27°C° 1.1 mm 2 mps 677 mmHg 73%
    14:00 +28°C° 1.1 mm 2 mps 677 mmHg 71%
    15:00 +27°C° 1.3 mm 2 mps 677 mmHg 74%
    16:00 +26°C° 1.3 mm 3 mps 676 mmHg 77%
    17:00 +26°C° 1.3 mm 3 mps 676 mmHg 80%
    18:00 +25°C° 0.9 mm 3 mps 676 mmHg 83%
    19:00 +24°C° 0.9 mm 3 mps 676 mmHg 86%
    20:00 +22°C° 0.9 mm 4 mps 677 mmHg 89%
    21:00 +22°C° 0.4 mm 3 mps 677 mmHg 90%
    22:00 +21°C° 0.4 mm 3 mps 677 mmHg 91%
    23:00 +21°C° 0.4 mm 3 mps 678 mmHg 92%

    Day after tomorrow, 23 February, Friday

    Time Temperature Precipitation Wind Pressure Humidity
    00:00 +21°C° 0.8 mm 3 mps 677 mmHg 93%
    01:00 +21°C° 0.8 mm 3 mps 677 mmHg 93%
    02:00 +21°C° 0.8 mm 3 mps 676 mmHg 93%
    03:00 +21°C° 0.8 mm 3 mps 676 mmHg 93%
    04:00 +21°C° 0.8 mm 2 mps 676 mmHg 93%
    05:00 +21°C° 0.8 mm 2 mps 676 mmHg 93%
    06:00 +21°C° 1.2 mm 2 mps 676 mmHg 93%
    07:00 +21°C° 1.2 mm 3 mps 677 mmHg 92%
    08:00 +21°C° 1.2 mm 3 mps 677 mmHg 92%
    09:00 +22°C° 1.5 mm 3 mps 677 mmHg 91%
    10:00 +22°C° 1.5 mm 3 mps 677 mmHg 90%
    11:00 +24°C° 1.5 mm 2 mps 677 mmHg 88%
    12:00 +25°C° 1.4 mm 2 mps 676 mmHg 84%
    13:00 +26°C° 1.4 mm 2 mps 676 mmHg 79%
    14:00 +27°C° 1.4 mm 2 mps 676 mmHg 75%
    15:00 +27°C° 2.8 mm 2 mps 675 mmHg 77%
    16:00 +27°C° 2.8 mm 2 mps 675 mmHg 79%
    17:00 +26°C° 2.8 mm 2 mps 675 mmHg 81%
    18:00 +25°C° 1.7 mm 2 mps 675 mmHg 84%
    19:00 +25°C° 1.7 mm 2 mps 676 mmHg 87%
    20:00 +24°C° 1.7 mm 2 mps 676 mmHg 90%
    21:00 +23°C° 1.1 mm 2 mps 676 mmHg 91%
    22:00 +23°C° 1.1 mm 2 mps 676 mmHg 92%
    23:00 +23°C° 1.1 mm 2 mps 677 mmHg 94%

    24 February, Saturday

    Time Temperature Precipitation Wind Pressure Humidity
    00:00 +23°C° 0.9 mm 2 mps 676 mmHg 94%
    01:00 +23°C° 0.9 mm 2 mps 676 mmHg 94%
    02:00 +23°C° 0.9 mm 2 mps 675 mmHg 94%
    03:00 +21°C° 0.5 mm 2 mps 675 mmHg 94%
    04:00 +21°C° 0.5 mm 2 mps 675 mmHg 94%
    05:00 +21°C° 0.5 mm 2 mps 675 mmHg 94%
    06:00 +23°C° 0.2 mm 2 mps 676 mmHg 92%
    07:00 +23°C° 0.2 mm 2 mps 676 mmHg 91%
    08:00 +22°C° 0.2 mm 3 mps 677 mmHg 90%
    09:00 +25°C° 0.8 mm 3 mps 677 mmHg 84%
    10:00 +26°C° 0.8 mm 3 mps 677 mmHg 79%
    11:00 +27°C° 0.8 mm 3 mps 677 mmHg 73%
    12:00 +28°C° 1.2 mm 3 mps 677 mmHg 72%
    13:00 +28°C° 1.2 mm 3 mps 676 mmHg 70%
    14:00 +29°C° 1.2 mm 3 mps 676 mmHg 69%
    15:00 +28°C° 1.7 mm 3 mps 676 mmHg 72%
    16:00 +27°C° 1.7 mm 2 mps 675 mmHg 76%
    17:00 +27°C° 1.7 mm 2 mps 675 mmHg 79%
    18:00 +26°C° 0.4 mm 1 mps 675 mmHg 82%
    19:00 +25°C° 0.4 mm 1 mps 676 mmHg 85%
    20:00 +24°C° 0.4 mm 1 mps 676 mmHg 88%
    21:00 +24°C° 0 mm 1 mps 676 mmHg 88%
    22:00 +24°C° 0 mm 1 mps 676 mmHg 88%
    23:00 +23°C° 0 mm 1 mps 676 mmHg 89%

    25 February, Sunday

    Time Temperature Precipitation Wind Pressure Humidity
    00:00 +23°C° 0 mm 1 mps 676 mmHg 89%
    01:00 +23°C° 0 mm 1 mps 676 mmHg 90%
    02:00 +23°C° 0 mm 1 mps 675 mmHg 91%
    03:00 +23°C° 0 mm 1 mps 675 mmHg 91%
    04:00 +22°C° 0 mm 1 mps 675 mmHg 92%
    05:00 +22°C° 0 mm 1 mps 675 mmHg 92%
    06:00 +23°C° 0 mm 1 mps 676 mmHg 90%
    07:00 +23°C° 0 mm 1 mps 676 mmHg 87%
    08:00 +24°C° 0 mm 1 mps 677 mmHg 85%
    09:00 +26°C° 0.1 mm 2 mps 677 mmHg 75%
    10:00 +28°C° 0.1 mm 3 mps 678 mmHg 65%
    11:00 +30°C° 0.1 mm 3 mps 678 mmHg 55%
    12:00 +32°C° 0 mm 4 mps 677 mmHg 51%
    13:00 +33°C° 0 mm 4 mps 677 mmHg 48%
    14:00 +34°C° 0 mm 5 mps 676 mmHg 45%
    15:00 +34°C° 0 mm 5 mps 676 mmHg 44%
    16:00 +33°C° 0 mm 5 mps 676 mmHg 43%
    17:00 +33°C° 0 mm 4 mps 675 mmHg 42%
    18:00 +30°C° 0 mm 3 mps 676 mmHg 46%
    19:00 +28°C° 0 mm 2 mps 676 mmHg 50%
    20:00 +26°C° 0 mm 1 mps 676 mmHg 53%
    21:00 +26°C° 0 mm 2 mps 676 mmHg 54%
    22:00 +25°C° 0 mm 2 mps 676 mmHg 54%
    23:00 +25°C° 0 mm 2 mps 677 mmHg 54%

    26 February, Monday

    Time Temperature Precipitation Wind Pressure Humidity
    00:00 +24°C° 0 mm 3 mps 677 mmHg 49%
    01:00 +22°C° 0 mm 3 mps 677 mmHg 44%
    02:00 +22°C° 0 mm 4 mps 677 mmHg 39%
    03:00 +21°C° 0 mm 4 mps 677 mmHg 36%
    04:00 +20°C° 0 mm 3 mps 677 mmHg 32%
    05:00 +19°C° 0 mm 3 mps 677 mmHg 29%
    06:00 +19°C° 0 mm 3 mps 677 mmHg 31%
    07:00 +19°C° 0 mm 3 mps 678 mmHg 34%
    08:00 +19°C° 0 mm 3 mps 678 mmHg 37%
    09:00 +21°C° 0 mm 3 mps 679 mmHg 35%
    10:00 +24°C° 0 mm 3 mps 679 mmHg 32%
    11:00 +27°C° 0 mm 3 mps 680 mmHg 30%
    12:00 +28°C° 0 mm 3 mps 680 mmHg 27%
    13:00 +30°C° 0 mm 3 mps 679 mmHg 25%
    14:00 +31°C° 0 mm 2 mps 679 mmHg 22%
    15:00 +31°C° 0 mm 2 mps 679 mmHg 23%
    16:00 +31°C° 0 mm 2 mps 679 mmHg 24%
    17:00 +31°C° 0 mm 2 mps 678 mmHg 25%
    18:00 +28°C° 0 mm 2 mps 678 mmHg 28%
    19:00 +26°C° 0 mm 2 mps 678 mmHg 32%
    20:00 +23°C° 0 mm 1 mps 678 mmHg 35%
    21:00 +23°C° 0 mm 1 mps 679 mmHg 36%
    22:00 +22°C° 0 mm 1 mps 679 mmHg 37%
    23:00 +22°C° 0 mm 1 mps 679 mmHg 38%
    Show more